Location: Alafon
(8.4500°N, 4.2333°E)
Time: 22:46:47
(UTC+00:00)

Vanguard 2 - Pass Details

Date: 09 August 2021
Orbit: 553 x 2937 km, 32.9° (Epoch: 26 September)

Event Time Altitude Azimuth Distance (km) Brightness Sun altitude
Rises 08:48:15 0° 301° (WNW) 3,382 10.5 45.4°
Reaches altitude 10° 08:50:19 10° 299° (WNW) 2,644 10.1 45.9°
Maximum altitude 08:56:43 79° 214° (SW) 1,323 9.4 47.4°
Drops below altitude 10° 09:07:51 10° 128° (SE) 4,410 11.9 50.1°
Sets 09:12:16 0° 127° (SE) 5,786 12.3 51.2°
